Farmington, MO

6:27 AM CST on November 15, 2019 (GMT -0600)
Farmington Regional

Weather History for KFAM - June, 2019

Change the Weather History Date:

Tuesday, June 11, 2019

  Actual Average Record
Temperature  
Mean Temperature 64 °F -  
Max Temperature 78 °F 78 °F 93 °F (2013)
Min Temperature 51 °F 60 °F 51 °F (2019)
Growing Degree Days 14 (Base 50)    
Moisture  
Dew Point 52 °F    
Average Humidity 65    
Maximum Humidity 96    
Minimum Humidity 37    
Precipitation  
Precipitation 0.00 in - - ()
Sea Level Pressure  
Sea Level Pressure 30.16 in    
Wind  
Wind Speed 2 mph (SSE)    
Max Wind Speed 9 mph    
Max Gust Speed -    
Visibility 10 miles    
Events      
Averages and records for this station are not official NWS values.
T = Trace of Precipitation, MM = Missing Value Source: NWS Daily Summary

Daily Weather History Graph

Daily Weather History Graph

Search for Another Location

Airport or City:

Astronomy

Jun. 11, 2019 Rise Set
Actual Time 5:39 AM CDT 8:23 PM CDT
Civil Twilight 5:08 AM CDT 8:54 PM CDT
Nautical Twilight 4:29 AM CDT 9:33 PM CDT
Astronomical Twilight 3:45 AM CDT 10:17 PM CDT
Moon 2:30 PM CDT (6/11) 2:15 AM CDT (6/11)
Length of Visible Light 15h 46m
Length of Day
14h 44m
Waxing Gibbous, 66% of the Moon is Illuminated
Jun 11
Waxing Gibbous
Jun 17
Full
Jun 25
Last Quarter
Jul 2
New
Jul 9
First Quarter

Hourly Weather History & Observations

Time (CDT) Temp. Dew Point Humidity Pressure Visibility Wind Dir Wind Speed Gust Speed Precip Events Conditions
12:56 AM 55.9 °F 51.1 °F 84% 30.22 in 10.0 mi Calm Calm - N/A   Clear
1:56 AM 54.0 °F 51.1 °F 90% 30.22 in 10.0 mi Calm Calm - N/A   Clear
2:56 AM 53.1 °F 50.0 °F 89% 30.22 in 10.0 mi West 3.5 mph - N/A   Clear
3:56 AM 52.0 °F 48.9 °F 89% 30.22 in 10.0 mi Calm Calm - N/A   Clear
4:56 AM 51.1 °F 50.0 °F 96% 30.23 in 10.0 mi Calm Calm - N/A   Clear
5:56 AM 52.0 °F 50.0 °F 93% 30.24 in 10.0 mi Calm Calm - N/A   Clear
6:56 AM 54.0 °F 51.1 °F 90% 30.25 in 10.0 mi Calm Calm - N/A   Clear
7:56 AM 60.1 °F 52.0 °F 75% 30.24 in 10.0 mi Calm Calm - N/A   Clear
8:56 AM 66.9 °F 54.0 °F 63% 30.23 in 10.0 mi Calm Calm - N/A   Clear
9:56 AM 73.0 °F 54.0 °F 51% 30.22 in 10.0 mi SSE 4.6 mph - N/A   Clear
10:56 AM 73.9 °F 48.9 °F 41% 30.20 in 10.0 mi ESE 5.8 mph - N/A   Clear
11:56 AM 75.0 °F 48.9 °F 40% 30.20 in 10.0 mi Variable 3.5 mph - N/A   Clear
12:56 PM 77.0 °F 48.9 °F 37% 30.17 in 10.0 mi ESE 6.9 mph - N/A   Clear
1:56 PM 77.0 °F 51.1 °F 40% 30.15 in 10.0 mi SE 9.2 mph - N/A   Clear
2:56 PM 78.1 °F 53.1 °F 42% 30.13 in 10.0 mi SSE 6.9 mph - N/A   Partly Cloudy
3:56 PM 78.1 °F 52.0 °F 40% 30.11 in 10.0 mi SSE 6.9 mph - N/A   Scattered Clouds
4:56 PM 77.0 °F 52.0 °F 42% 30.10 in 10.0 mi Variable 4.6 mph - N/A   Partly Cloudy
5:56 PM 77.0 °F 53.1 °F 43% 30.08 in 10.0 mi SE 5.8 mph - N/A   Clear
6:56 PM 75.0 °F 51.1 °F 43% 30.07 in 10.0 mi SE 6.9 mph - N/A   Clear
7:56 PM 71.1 °F 55.0 °F 57% 30.07 in 10.0 mi SSE 4.6 mph - N/A   Clear
8:42 PM 69.8 °F 55.4 °F 60% 30.09 in 10.0 mi SSE 3.5 mph - N/A   Partly Cloudy
8:56 PM 66.9 °F 55.0 °F 66% 30.07 in 10.0 mi South 4.6 mph - N/A   Clear
9:56 PM 64.0 °F 55.0 °F 73% 30.07 in 10.0 mi Calm Calm - N/A   Clear
10:56 PM 60.1 °F 55.9 °F 86% 30.08 in 10.0 mi Calm Calm - N/A   Clear
11:56 PM 57.9 °F 55.9 °F 93% 30.06 in 10.0 mi Calm Calm - N/A   Clear